| time (UTC) | temp F | wind direction | speed MPH | gust MPH | rain 1hr in | rain 24hr in | rain mn in | humidity % | barometer mb |
| 20260506014724 | 70 | 222 | 3.0 | 8.0 | 0.00 | 0.38 | 0.20 | 30 | 1011.8 |
| 20260506014717 | 70 | 270 | 4.0 | 9.0 | 0.00 | 0.39 | 0.20 | 30 | 1011.8 |
| 20260506013709 | 71 | 276 | 6.0 | 10.0 | 0.00 | 0.39 | 0.20 | 29 | 1011.4 |
| 20260506013149 | 71 | 300 | 6.0 | 10.0 | 0.00 | 0.40 | 0.20 | 30 | 1011.6 |
| 20260506012642 | 71 | 285 | 3.0 | 11.0 | 0.00 | 0.41 | 0.20 | 29 | 1011.6 |
| 20260506012131 | 71 | 248 | 3.0 | 11.0 | 0.00 | 0.41 | 0.20 | 30 | 1011.4 |
| 20260506011623 | 72 | 313 | 4.0 | 11.0 | 0.00 | 0.41 | 0.20 | 29 | 1011.5 |
| 20260506011119 | 72 | 256 | 5.0 | 11.0 | 0.00 | 0.41 | 0.20 | 30 | 1011.4 |
| 20260506010607 | 73 | 262 | 7.0 | 11.0 | 0.00 | 0.41 | 0.20 | 30 | 1011.3 |
| 20260506010058 | 73 | 308 | 4.0 | 11.0 | 0.00 | 0.41 | 0.20 | 30 | 1011.3 |
| 20260506005554 | 73 | 267 | 6.0 | 13.0 | 0.00 | 0.41 | 0.20 | 31 | 1011.3 |
| 20260506005044 | 73 | 294 | 6.0 | 14.0 | 0.00 | 0.41 | 0.20 | 30 | 1011.3 |
| 20260506004535 | 73 | 186 | 8.0 | 15.0 | 0.00 | 0.41 | 0.20 | 30 | 1010.9 |
| 20260506004027 | 74 | 289 | 8.0 | 15.0 | 0.00 | 0.41 | 0.20 | 29 | 1011.1 |
| 20260506003522 | 75 | 288 | 5.0 | 15.0 | 0.00 | 0.41 | 0.20 | 28 | 1011.1 |
| 20260506003011 | 75 | 248 | 4.0 | 13.0 | 0.00 | 0.41 | 0.20 | 28 | 1011.1 |
| 20260506002504 | 76 | 282 | 9.0 | 13.0 | 0.00 | 0.41 | 0.20 | 28 | 1010.9 |
| 20260506001955 | 75 | 214 | 5.0 | 13.0 | 0.00 | 0.41 | 0.20 | 28 | 1010.9 |
| 20260506001451 | 75 | 263 | 8.0 | 15.0 | 0.00 | 0.41 | 0.20 | 28 | 1010.8 |
| 20260506000940 | 75 | 211 | 6.0 | 14.0 | 0.00 | 0.41 | 0.20 | 28 | 1011.1 |
| 20260506000432 | 75 | 278 | 10.0 | 13.0 | 0.00 | 0.41 | 0.20 | 29 | 1011.1 |
| 20260505235916 | 75 | 199 | 6.0 | 15.0 | 0.00 | 0.41 | 0.20 | 29 | 1010.9 |
| 20260505235406 | 75 | 303 | 5.0 | 15.0 | 0.00 | 0.41 | 0.20 | 28 | 1010.7 |
| 20260505234845 | 76 | 321 | 6.0 | 11.0 | 0.00 | 0.41 | 0.20 | 28 | 1010.6 |
| 20260505234336 | 76 | 201 | 2.0 | 14.0 | 0.00 | 0.41 | 0.20 | 28 | 1010.8 |
| 20260505234100 | 76 | 293 | 6.0 | 14.0 | 0.00 | 0.41 | 0.20 | 27 | 1010.9 |
| 20260505233321 | 76 | 256 | 5.0 | 11.0 | 0.00 | 0.41 | 0.20 | 31 | 1010.6 |
| 20260505232818 | 75 | 226 | 4.0 | 11.0 | 0.00 | 0.41 | 0.20 | 29 | 1010.4 |
| 20260505232536 | 75 | 234 | 8.0 | 15.0 | 0.00 | 0.41 | 0.20 | 32 | 1010.5 |
| 20260505231759 | 76 | 280 | 4.0 | 15.0 | 0.00 | 0.41 | 0.20 | 30 | 1010.5 |
| 20260505231250 | 75 | 276 | 5.0 | 11.0 | 0.00 | 0.41 | 0.20 | 32 | 1010.6 |
| 20260505230740 | 75 | 324 | 5.0 | 14.0 | 0.00 | 0.41 | 0.20 | 32 | 1010.4 |
| 20260505230232 | 75 | 272 | 7.0 | 14.0 | 0.00 | 0.41 | 0.20 | 34 | 1010.4 |
| 20260505225724 | 74 | 270 | 3.0 | 10.0 | 0.00 | 0.41 | 0.20 | 34 | 1010.4 |
| 20260505225221 | 74 | 287 | 4.0 | 10.0 | 0.00 | 0.41 | 0.20 | 32 | 1010.5 |
| 20260505224710 | 75 | 221 | 5.0 | 11.0 | 0.00 | 0.41 | 0.20 | 32 | 1010.6 |
| 20260505224433 | 75 | 301 | 2.0 | 11.0 | 0.00 | 0.41 | 0.20 | 32 | 1010.8 |
| 20260505223655 | 75 | 279 | 6.0 | 11.0 | 0.00 | 0.41 | 0.20 | 32 | 1010.9 |
| 20260505223421 | 74 | 318 | 4.0 | 11.0 | 0.00 | 0.41 | 0.20 | 34 | 1010.9 |
| 20260505222637 | 75 | 248 | 5.0 | 10.0 | 0.00 | 0.41 | 0.20 | 33 | 1010.9 |
| 20260505222128 | 74 | 256 | 4.0 | 14.0 | 0.00 | 0.41 | 0.20 | 34 | 1011.2 |
| 20260505221622 | 74 | 287 | 6.0 | 14.0 | 0.00 | 0.41 | 0.20 | 33 | 1011.2 |
| 20260505221113 | 74 | 218 | 3.0 | 10.0 | 0.00 | 0.41 | 0.20 | 34 | 1011.1 |
| 20260505220606 | 75 | 250 | 5.0 | 13.0 | 0.00 | 0.41 | 0.20 | 33 | 1011.2 |
| 20260505220100 | 75 | 222 | 5.0 | 13.0 | 0.00 | 0.41 | 0.20 | 35 | 1011.2 |
| 20260505215822 | 74 | 289 | 3.0 | 13.0 | 0.00 | 0.41 | 0.20 | 37 | 1010.9 |
| 20260505215543 | 74 | 211 | 9.0 | 13.0 | 0.00 | 0.41 | 0.20 | 35 | 1011.4 |
| 20260505214753 | 74 | 251 | 4.0 | 10.0 | 0.00 | 0.41 | 0.20 | 36 | 1011.5 |
| 20260505214007 | 74 | 236 | 3.0 | 7.0 | 0.00 | 0.41 | 0.20 | 42 | 1011.4 |
| 20260505213456 | 73 | 316 | 1.0 | 7.0 | 0.00 | 0.41 | 0.20 | 41 | 1011.5 |
| 20260505212950 | 74 | 246 | 2.0 | 7.0 | 0.00 | 0.41 | 0.20 | 40 | 1011.7 |
| 20260505212439 | 74 | 288 | 4.0 | 14.0 | 0.00 | 0.41 | 0.20 | 39 | 1011.7 |
| 20260505211931 | 74 | 235 | 9.0 | 14.0 | 0.00 | 0.41 | 0.20 | 40 | 1011.8 |
| 20260505211426 | 73 | 223 | 6.0 | 13.0 | 0.00 | 0.41 | 0.20 | 45 | 1011.8 |
| 20260505210905 | 73 | 257 | 9.0 | 13.0 | 0.00 | 0.41 | 0.20 | 46 | 1011.8 |
| 20260505210350 | 73 | 17 | 4.0 | 14.0 | 0.00 | 0.41 | 0.20 | 46 | 1011.7 |
| 20260505205838 | 73 | 330 | 6.0 | 14.0 | 0.00 | 0.41 | 0.20 | 46 | 1012.0 |
| 20260505205330 | 73 | 333 | 5.0 | 9.0 | 0.00 | 0.41 | 0.20 | 48 | 1012.1 |
| 20260505204824 | 73 | 228 | 2.0 | 4.0 | 0.00 | 0.41 | 0.20 | 51 | 1012.0 |
| 20260505204544 | 73 | 216 | 3.0 | 8.0 | 0.00 | 0.41 | 0.20 | 50 | 1011.8 |
| 20260505203804 | 73 | 305 | 3.0 | 8.0 | 0.00 | 0.41 | 0.20 | 47 | 1011.9 |
| 20260505203257 | 73 | 231 | 4.0 | 9.0 | 0.00 | 0.41 | 0.20 | 49 | 1011.9 |
| 20260505202749 | 74 | 319 | 7.0 | 9.0 | 0.00 | 0.41 | 0.20 | 46 | 1012.1 |
| 20260505202242 | 75 | 339 | 3.0 | 9.0 | 0.00 | 0.41 | 0.20 | 48 | 1011.8 |
| 20260505201733 | 74 | 238 | 4.0 | 11.0 | 0.00 | 0.41 | 0.20 | 48 | 1012.0 |
| 20260505201456 | 74 | 257 | 4.0 | 11.0 | 0.00 | 0.41 | 0.20 | 46 | 1012.1 |
| 20260505200718 | 74 | 227 | 4.0 | 11.0 | 0.00 | 0.41 | 0.20 | 52 | 1012.1 |
| 20260505200213 | 73 | 188 | 6.0 | 11.0 | 0.00 | 0.41 | 0.20 | 53 | 1012.2 |
| 20260505195701 | 73 | 191 | 2.0 | 10.0 | 0.00 | 0.41 | 0.20 | 55 | 1012.1 |
| 20260505195423 | 72 | 241 | 3.0 | 10.0 | 0.00 | 0.41 | 0.20 | 57 | 1012.2 |
| 20260505194648 | 72 | 272 | 6.0 | 10.0 | 0.00 | 0.41 | 0.20 | 55 | 1012.2 |
| 20260505194139 | 71 | 218 | 1.0 | 9.0 | 0.00 | 0.41 | 0.20 | 61 | 1012.5 |
| 20260505193628 | 71 | 271 | 2.0 | 8.0 | 0.00 | 0.41 | 0.20 | 66 | 1012.7 |
| 20260505193121 | 70 | 303 | 2.0 | 4.0 | 0.00 | 0.41 | 0.20 | 67 | 1012.3 |
| 20260505192616 | 70 | 306 | 1.0 | 6.0 | 0.00 | 0.41 | 0.20 | 67 | 1012.3 |
| 20260505192106 | 70 | 320 | 2.0 | 8.0 | 0.00 | 0.41 | 0.20 | 68 | 1012.5 |
| 20260505191559 | 69 | 266 | 0.0 | 8.0 | 0.00 | 0.41 | 0.20 | 68 | 1012.7 |
| 20260505191048 | 69 | 180 | 0.0 | 6.0 | 0.00 | 0.41 | 0.20 | 69 | 1012.7 |
| 20260505190543 | 69 | 324 | 2.0 | 8.0 | 0.00 | 0.41 | 0.20 | 69 | 1012.7 |
| 20260505190035 | 69 | 263 | 2.0 | 8.0 | 0.00 | 0.41 | 0.20 | 69 | 1012.8 |
| 20260505185517 | 70 | 296 | 4.0 | 8.0 | 0.00 | 0.41 | 0.20 | 69 | 1012.5 |
| 20260505185006 | 70 | 174 | 3.0 | 7.0 | 0.00 | 0.41 | 0.20 | 69 | 1012.9 |
| 20260505184500 | 69 | 165 | 2.0 | 8.0 | 0.00 | 0.41 | 0.20 | 69 | 1013.0 |
| 20260505184216 | 69 | 202 | 3.0 | 8.0 | 0.00 | 0.41 | 0.20 | 75 | 1012.9 |
| 20260505184052 | 69 | 102 | 1.0 | 8.0 | 0.00 | 0.41 | 0.20 | 74 | 1013.2 |
| 20260505182927 | 68 | 249 | 2.0 | 6.0 | 0.00 | 0.41 | 0.20 | 75 | 1013.0 |
| 20260505182404 | 68 | 225 | 2.0 | 6.0 | 0.00 | 0.41 | 0.20 | 76 | 1013.2 |
| 20260505181855 | 67 | 228 | 2.0 | 3.0 | 0.00 | 0.41 | 0.20 | 77 | 1013.3 |
| 20260505181353 | 67 | 215 | 1.0 | 3.0 | 0.00 | 0.41 | 0.20 | 80 | 1013.4 |
| 20260505181110 | 67 | 205 | 2.0 | 4.0 | 0.00 | 0.41 | 0.20 | 80 | 1013.5 |
| 20260505180333 | 67 | 215 | 1.0 | 4.0 | 0.00 | 0.41 | 0.20 | 81 | 1013.4 |
| 20260505175816 | 66 | 231 | 0.0 | 3.0 | 0.00 | 0.41 | 0.20 | 81 | 1013.6 |
| 20260505175306 | 66 | 124 | 0.0 | 2.0 | 0.00 | 0.41 | 0.20 | 79 | 1013.6 |
| 20260505174756 | 66 | 121 | 0.0 | 3.0 | 0.00 | 0.41 | 0.20 | 82 | 1013.4 |
| 20260505174523 | 66 | 38 | 2.0 | 3.0 | 0.00 | 0.41 | 0.20 | 86 | 1013.5 |
| 20260505174007 | 66 | 190 | 1.0 | 3.0 | 0.00 | 0.41 | 0.20 | 85 | 1013.6 |
| 20260505173856 | 65 | 213 | 0.0 | 3.0 | 0.00 | 0.41 | 0.20 | 85 | 1013.6 |
| 20260505172718 | 66 | 218 | 2.0 | 3.0 | 0.00 | 0.41 | 0.20 | 86 | 1013.7 |
| 20260505172207 | 66 | 92 | 2.0 | 3.0 | 0.00 | 0.41 | 0.20 | 86 | 1013.9 |
| 20260505171701 | 66 | 156 | 0.0 | 2.0 | 0.00 | 0.41 | 0.20 | 86 | 1013.5 |
| 20260505171149 | 66 | 201 | 2.0 | 3.0 | 0.00 | 0.41 | 0.20 | 86 | 1013.7 |
| 20260505170648 | 67 | 235 | 1.0 | 3.0 | 0.00 | 0.41 | 0.20 | 86 | 1013.5 |
| 20260505170137 | 67 | 226 | 1.0 | 3.0 | 0.00 | 0.41 | 0.20 | 87 | 1013.6 |
| 20260505165629 | 67 | 2 | 1.0 | 4.0 | 0.00 | 0.41 | 0.20 | 88 | 1013.6 |
| 20260505165118 | 66 | 270 | 0.0 | 4.0 | 0.00 | 0.41 | 0.20 | 88 | 1013.5 |
| 20260505164843 | 65 | 172 | 0.0 | 4.0 | 0.00 | 0.41 | 0.20 | 89 | 1013.5 |
| 20260505164104 | 65 | 216 | 0.0 | 4.0 | 0.00 | 0.41 | 0.20 | 89 | 1013.7 |
| 20260505163554 | 64 | 223 | 3.0 | 4.0 | 0.00 | 0.41 | 0.20 | 89 | 1013.6 |
| 20260505163056 | 64 | 227 | 1.0 | 3.0 | 0.00 | 0.41 | 0.20 | 89 | 1013.5 |
| 20260505162539 | 63 | 233 | 2.0 | 6.0 | 0.00 | 0.41 | 0.20 | 89 | 1013.5 |
| 20260505162030 | 63 | 225 | 2.0 | 6.0 | 0.00 | 0.41 | 0.20 | 90 | 1013.6 |
| 20260505161525 | 63 | 207 | 2.0 | 4.0 | 0.00 | 0.41 | 0.20 | 90 | 1013.9 |
| 20260505161018 | 62 | 248 | 2.0 | 4.0 | 0.00 | 0.41 | 0.20 | 90 | 1013.6 |
| 20260505160737 | 62 | 285 | 1.0 | 3.0 | 0.00 | 0.41 | 0.20 | 90 | 1013.9 |
| 20260505152911 | 61 | 211 | 1.0 | 3.0 | 0.00 | 0.41 | 0.20 | 93 | 1013.3 |
| 20260505152404 | 61 | 197 | 2.0 | 3.0 | 0.00 | 0.41 | 0.20 | 93 | 1013.2 |
| 20260505151844 | 60 | 209 | 1.0 | 3.0 | 0.00 | 0.41 | 0.20 | 93 | 1013.3 |
| 20260505151335 | 60 | 216 | 0.0 | 2.0 | 0.00 | 0.41 | 0.20 | 93 | 1013.3 |
| 20260505150829 | 60 | 221 | 1.0 | 3.0 | 0.00 | 0.41 | 0.20 | 93 | 1013.5 |
| 20260505150318 | 60 | 220 | 0.0 | 3.0 | 0.00 | 0.41 | 0.20 | 93 | 1013.4 |
| 20260505140142 | 58 | 284 | 1.0 | 2.0 | 0.00 | 0.41 | 0.20 | 93 | 1013.3 |
| 20260505124945 | 58 | 226 | 0.0 | 2.0 | 0.01 | 0.41 | 0.20 | 92 | 1012.5 |
| 20260505124702 | 58 | 236 | 1.0 | 2.0 | 0.01 | 0.41 | 0.20 | 92 | 1012.3 |
| 20260505123925 | 57 | 221 | 0.0 | 2.0 | 0.01 | 0.41 | 0.20 | 92 | 1012.3 |
| 20260505123415 | 57 | 231 | 0.0 | 2.0 | 0.01 | 0.41 | 0.20 | 92 | 1012.2 |
| 20260505123143 | 57 | 211 | 0.0 | 2.0 | 0.02 | 0.41 | 0.20 | 92 | 1012.1 |
| 20260505122417 | 57 | 227 | 1.0 | 2.0 | 0.02 | 0.41 | 0.20 | 92 | 1012.2 |
| 20260505122357 | 57 | 214 | 1.0 | 2.0 | 0.02 | 0.41 | 0.20 | 92 | 1012.2 |
| 20260505121344 | 57 | 237 | 2.0 | 3.0 | 0.02 | 0.41 | 0.20 | 92 | 1012.3 |
| 20260505120836 | 57 | 202 | 1.0 | 4.0 | 0.01 | 0.40 | 0.19 | 92 | 1012.0 |
| 20260505120322 | 57 | 207 | 0.0 | 4.0 | 0.01 | 0.40 | 0.19 | 92 | 1011.9 |
| 20260505115810 | 57 | 205 | 3.0 | 4.0 | 0.02 | 0.40 | 0.19 | 92 | 1012.2 |
| 20260505115305 | 57 | 226 | 0.0 | 6.0 | 0.02 | 0.40 | 0.19 | 92 | 1011.9 |
| 20260505114743 | 57 | 219 | 1.0 | 6.0 | 0.02 | 0.40 | 0.19 | 92 | 1012.0 |
| 20260505114505 | 57 | 234 | 2.0 | 6.0 | 0.02 | 0.40 | 0.19 | 92 | 1011.7 |
| 20260505113729 | 57 | 160 | 3.0 | 4.0 | 0.03 | 0.40 | 0.19 | 92 | 1011.6 |
| 20260505113219 | 57 | 224 | 2.0 | 3.0 | 0.02 | 0.39 | 0.18 | 92 | 1012.0 |
| 20260505112931 | 57 | 217 | 1.0 | 6.0 | 0.02 | 0.39 | 0.18 | 92 | 1012.3 |
| 20260505112154 | 57 | 226 | 1.0 | 6.0 | 0.02 | 0.39 | 0.18 | 92 | 1012.1 |
| 20260505112145 | 57 | 202 | 1.0 | 6.0 | 0.03 | 0.39 | 0.18 | 92 | 1012.2 |
| 20260505111136 | 57 | 162 | 3.0 | 6.0 | 0.04 | 0.39 | 0.18 | 92 | 1012.1 |
| 20260505110631 | 57 | 185 | 1.0 | 6.0 | 0.05 | 0.39 | 0.18 | 92 | 1011.8 |
| 20260505110350 | 57 | 210 | 3.0 | 6.0 | 0.05 | 0.39 | 0.18 | 92 | 1012.5 |
| 20260505102005 | 58 | 134 | 4.0 | 8.0 | 0.03 | 0.37 | 0.16 | 91 | 1012.9 |
| 20260505101457 | 58 | 79 | 6.0 | 7.0 | 0.02 | 0.36 | 0.15 | 91 | 1013.0 |
| 20260505101219 | 58 | 158 | 1.0 | 8.0 | 0.01 | 0.35 | 0.14 | 92 | 1013.4 |
| 20260505100441 | 58 | 170 | 4.0 | 11.0 | 0.01 | 0.34 | 0.13 | 92 | 1013.5 |
| 20260505095935 | 58 | 201 | 3.0 | 11.0 | 0.01 | 0.34 | 0.13 | 91 | 1013.4 |
| 20260505095657 | 58 | 204 | 2.0 | 11.0 | 0.01 | 0.34 | 0.13 | 91 | 1013.0 |
| 20260505094916 | 58 | 304 | 5.0 | 13.0 | 0.01 | 0.34 | 0.13 | 92 | 1013.2 |
| 20260505094408 | 58 | 127 | 4.0 | 13.0 | 0.01 | 0.34 | 0.13 | 92 | 1013.2 |
| 20260505093901 | 58 | 130 | 5.0 | 15.0 | 0.01 | 0.34 | 0.13 | 92 | 1012.9 |
| 20260505093351 | 58 | 162 | 10.0 | 14.0 | 0.02 | 0.34 | 0.13 | 91 | 1013.0 |
| 20260505092844 | 58 | 131 | 5.0 | 10.0 | 0.02 | 0.34 | 0.13 | 91 | 1013.4 |
| 20260505092336 | 58 | 166 | 4.0 | 8.0 | 0.03 | 0.34 | 0.13 | 90 | 1013.3 |
| 20260505091828 | 58 | 132 | 3.0 | 11.0 | 0.04 | 0.34 | 0.13 | 90 | 1013.4 |
| 20260505091312 | 58 | 196 | 3.0 | 11.0 | 0.05 | 0.34 | 0.13 | 91 | 1013.4 |
| 20260505090804 | 58 | 137 | 3.0 | 9.0 | 0.05 | 0.33 | 0.12 | 90 | 1013.4 |
| 20260505090252 | 58 | 131 | 6.0 | 9.0 | 0.05 | 0.33 | 0.12 | 90 | 1013.1 |
| 20260505085751 | 58 | 155 | 3.0 | 9.0 | 0.06 | 0.33 | 0.12 | 90 | 1013.3 |
| 20260505085238 | 58 | 143 | 2.0 | 9.0 | 0.06 | 0.33 | 0.12 | 90 | 1013.6 |
| 20260505085004 | 58 | 105 | 3.0 | 8.0 | 0.06 | 0.33 | 0.12 | 90 | 1013.7 |
| 20260505084211 | 58 | 160 | 5.0 | 8.0 | 0.07 | 0.33 | 0.12 | 90 | 1013.6 |
| 20260505083702 | 58 | 92 | 3.0 | 8.0 | 0.07 | 0.32 | 0.12 | 90 | 1014.1 |
| 20260505083156 | 58 | 155 | 5.0 | 10.0 | 0.08 | 0.32 | 0.11 | 90 | 1014.3 |
| 20260505082645 | 58 | 142 | 8.0 | 10.0 | 0.09 | 0.32 | 0.11 | 89 | 1014.3 |
| 20260505082139 | 58 | 160 | 4.0 | 9.0 | 0.09 | 0.31 | 0.10 | 89 | 1015.0 |
| 20260505081632 | 58 | 173 | 5.0 | 9.0 | 0.08 | 0.30 | 0.09 | 88 | 1014.8 |
| 20260505081122 | 58 | 141 | 2.0 | 8.0 | 0.07 | 0.29 | 0.08 | 87 | 1014.7 |
| 20260505080842 | 58 | 180 | 1.0 | 8.0 | 0.07 | 0.28 | 0.07 | 87 | 1015.5 |
| 20260505080720 | 58 | 162 | 2.0 | 8.0 | 0.07 | 0.28 | 0.07 | 88 | 1015.1 |
| 20260505075548 | 58 | 108 | 4.0 | 8.0 | 0.06 | 0.27 | 0.06 | 86 | 1015.5 |
| 20260505075309 | 58 | 217 | 3.0 | 8.0 | 0.07 | 0.27 | 0.06 | 87 | 1015.6 |
| 20260505074531 | 58 | 193 | 3.0 | 10.0 | 0.07 | 0.26 | 0.06 | 86 | 1015.5 |
| 20260505074024 | 59 | 115 | 4.0 | 10.0 | 0.07 | 0.26 | 0.05 | 86 | 1015.3 |
| 20260505073517 | 59 | 150 | 4.0 | 6.0 | 0.06 | 0.24 | 0.04 | 85 | 1015.8 |
| 20260505073010 | 59 | 139 | 2.0 | 4.0 | 0.06 | 0.24 | 0.03 | 84 | 1015.8 |
| 20260505072458 | 59 | 132 | 2.0 | 4.0 | 0.06 | 0.23 | 0.02 | 83 | 1015.8 |
| 20260505071952 | 59 | 177 | 1.0 | 4.0 | 0.06 | 0.22 | 0.01 | 83 | 1015.8 |
| 20260505071716 | 59 | 156 | 1.0 | 4.0 | 0.07 | 0.22 | 0.01 | 82 | 1015.6 |
| 20260505070936 | 59 | 216 | 1.0 | 4.0 | 0.07 | 0.22 | 0.01 | 82 | 1015.6 |
| 20260505070658 | 59 | 122 | 1.0 | 4.0 | 0.06 | 0.21 | 0.00 | 81 | 1015.5 |
| 20260505065919 | 59 | 151 | 2.0 | 3.0 | 0.06 | 0.21 | 0.21 | 81 | 1015.6 |
| 20260505065644 | 59 | 138 | 1.0 | 2.0 | 0.06 | 0.21 | 0.21 | 80 | 1015.7 |
| 20260505064904 | 59 | 142 | 1.0 | 1.0 | 0.06 | 0.20 | 0.20 | 80 | 1015.7 |
| 20260505064629 | 59 | 142 | 0.0 | 0.0 | 0.05 | 0.19 | 0.19 | 79 | 1015.6 |
| 20260505064154 | 59 | 140 | 0.0 | 1.0 | 0.05 | 0.19 | 0.19 | 79 | 1015.8 |
| 20260505063340 | 59 | 63 | 0.0 | 1.0 | 0.05 | 0.18 | 0.18 | 78 | 1015.5 |
| 20260505063102 | 59 | 249 | 0.0 | 0.0 | 0.04 | 0.17 | 0.17 | 78 | 1015.6 |
| 20260505062323 | 59 | 277 | 0.0 | 1.0 | 0.04 | 0.17 | 0.17 | 77 | 1015.6 |
| 20260505061816 | 59 | 253 | 0.0 | 1.0 | 0.03 | 0.16 | 0.16 | 76 | 1015.7 |
| 20260505061307 | 59 | 199 | 0.0 | 1.0 | 0.03 | 0.15 | 0.15 | 76 | 1015.7 |
| 20260505060801 | 59 | 248 | 0.0 | 1.0 | 0.03 | 0.15 | 0.15 | 75 | 1015.6 |
| 20260505060250 | 59 | 244 | 0.0 | 1.0 | 0.03 | 0.15 | 0.15 | 75 | 1015.8 |
| 20260505055743 | 59 | 292 | 0.0 | 2.0 | 0.03 | 0.15 | 0.15 | 74 | 1015.7 |
| 20260505055236 | 59 | 232 | 0.0 | 4.0 | 0.03 | 0.15 | 0.15 | 74 | 1015.4 |
| 20260505054730 | 59 | 209 | 1.0 | 4.0 | 0.02 | 0.14 | 0.14 | 73 | 1015.1 |
| 20260505054724 | 59 | 214 | 1.0 | 6.0 | 0.03 | 0.14 | 0.14 | 72 | 1015.4 |
| 20260505053710 | 59 | 193 | 2.0 | 6.0 | 0.03 | 0.14 | 0.14 | 71 | 1015.5 |
| 20260505053204 | 59 | 157 | 2.0 | 6.0 | 0.02 | 0.13 | 0.13 | 71 | 1015.4 |
| 20260505052654 | 59 | 143 | 2.0 | 7.0 | 0.02 | 0.13 | 0.13 | 70 | 1015.6 |
| 20260505052146 | 59 | 181 | 2.0 | 7.0 | 0.02 | 0.13 | 0.13 | 70 | 1015.5 |
| 20260505051641 | 58 | 152 | 2.0 | 4.0 | 0.03 | 0.13 | 0.13 | 70 | 1015.3 |
| 20260505051130 | 58 | 162 | 1.0 | 2.0 | 0.02 | 0.12 | 0.12 | 69 | 1015.3 |
| 20260505050853 | 58 | 103 | 1.0 | 2.0 | 0.03 | 0.12 | 0.12 | 68 | 1015.3 |
| 20260505050115 | 58 | 149 | 0.0 | 3.0 | 0.04 | 0.12 | 0.12 | 68 | 1015.4 |
| 20260505041503 | 60 | 210 | 2.0 | 2.0 | 0.04 | 0.10 | 0.10 | 59 | 1015.7 |
| 20260505040955 | 61 | 219 | 1.0 | 3.0 | 0.03 | 0.09 | 0.09 | 58 | 1015.7 |
| 20260505040719 | 61 | 236 | 2.0 | 2.0 | 0.02 | 0.08 | 0.09 | 58 | 1015.8 |
| 20260505035940 | 62 | 234 | 1.0 | 3.0 | 0.02 | 0.08 | 0.08 | 57 | 1015.7 |
| 20260505035701 | 62 | 223 | 2.0 | 4.0 | 0.01 | 0.07 | 0.07 | 56 | 1015.7 |
| 20260505034922 | 62 | 224 | 1.0 | 4.0 | 0.00 | 0.06 | 0.06 | 57 | 1015.5 |
| 20260505034416 | 62 | 230 | 1.0 | 8.0 | 0.00 | 0.06 | 0.06 | 57 | 1015.3 |
| 20260505033907 | 63 | 235 | 1.0 | 8.0 | 0.00 | 0.06 | 0.06 | 56 | 1015.3 |
| 20260505033403 | 62 | 227 | 5.0 | 8.0 | 0.00 | 0.06 | 0.06 | 55 | 1014.8 |
| 20260505032853 | 62 | 185 | 3.0 | 8.0 | 0.00 | 0.06 | 0.06 | 54 | 1014.4 |
| 20260505032614 | 62 | 58 | 3.0 | 13.0 | 0.00 | 0.06 | 0.06 | 55 | 1014.3 |
| 20260505032106 | 62 | 110 | 9.0 | 13.0 | 0.01 | 0.06 | 0.06 | 56 | 1014.5 |
| 20260505031327 | 61 | 157 | 4.0 | 13.0 | 0.01 | 0.06 | 0.06 | 57 | 1014.0 |
| 20260505030825 | 61 | 134 | 3.0 | 6.0 | 0.01 | 0.06 | 0.06 | 56 | 1013.9 |
| 20260505030259 | 61 | 198 | 2.0 | 9.0 | 0.01 | 0.06 | 0.06 | 57 | 1014.2 |
| 20260505025753 | 61 | 150 | 2.0 | 11.0 | 0.01 | 0.06 | 0.06 | 57 | 1014.6 |
| 20260505025518 | 61 | 140 | 4.0 | 11.0 | 0.02 | 0.06 | 0.06 | 57 | 1014.7 |
| 20260505024737 | 61 | 154 | 6.0 | 10.0 | 0.03 | 0.06 | 0.06 | 58 | 1014.5 |
| 20260505024229 | 61 | 156 | 3.0 | 11.0 | 0.04 | 0.06 | 0.06 | 60 | 1014.5 |
| 20260505023712 | 61 | 157 | 6.0 | 11.0 | 0.04 | 0.06 | 0.06 | 60 | 1014.4 |
| 20260505023703 | 60 | 85 | 7.0 | 13.0 | 0.05 | 0.06 | 0.06 | 62 | 1014.4 |
| 20260505022652 | 60 | 136 | 10.0 | 13.0 | 0.06 | 0.06 | 0.06 | 60 | 1014.5 |
| 20260505022415 | 60 | 160 | 3.0 | 9.0 | 0.06 | 0.06 | 0.06 | 60 | 1014.7 |
| 20260505021637 | 60 | 142 | 4.0 | 9.0 | 0.05 | 0.05 | 0.05 | 58 | 1014.8 |
| 20260505021132 | 60 | 96 | 4.0 | 7.0 | 0.05 | 0.05 | 0.05 | 55 | 1015.1 |
| 20260505020613 | 61 | 76 | 2.0 | 4.0 | 0.05 | 0.05 | 0.05 | 52 | 1015.1 |
| 20260505020107 | 61 | 141 | 1.0 | 4.0 | 0.05 | 0.05 | 0.05 | 51 | 1015.3 |
| 20260505015553 | 62 | 192 | 0.0 | 2.0 | 0.04 | 0.04 | 0.04 | 50 | 1015.4 |